When you browse on this site, cookies collect data to enhance your experience and personalize the content and advertising you see.
Visit our Privacy Policy to learn more. By continuing to use the site, you agree to this use of cookies and data.
  • In Romania
  • List of Countries
  • For 7 days
  • Water Temperature
  • Satellite Maps
  • Weather Map
  • Weather Widgets
  • user-avatar
    Login

    Hourly Weather Arriate

    Today, 16 July, Tuesday

    Time Temperature Precipitation Wind Pressure Humidity
    00:00 +20°C° 0 mm 0 mps 691 mmHg 47%
    01:00 +22°C° 0 mm 1 mps 691 mmHg 47%
    02:00 +21°C° 0 mm 1 mps 691 mmHg 47%
    03:00 +21°C° 0 mm 1 mps 691 mmHg 47%
    04:00 +21°C° 0 mm 1 mps 691 mmHg 45%
    05:00 +21°C° 0 mm 1 mps 691 mmHg 43%
    06:00 +21°C° 0 mm 1 mps 691 mmHg 41%
    07:00 +24°C° 0 mm 1 mps 692 mmHg 36%
    08:00 +27°C° 0 mm 1 mps 693 mmHg 30%
    09:00 +30°C° 0 mm 2 mps 694 mmHg 25%
    10:00 +31°C° 0 mm 3 mps 694 mmHg 25%
    11:00 +33°C° 0 mm 3 mps 694 mmHg 25%
    12:00 +34°C° 0 mm 4 mps 694 mmHg 26%
    13:00 +34°C° 0 mm 4 mps 694 mmHg 25%
    14:00 +35°C° 0 mm 4 mps 694 mmHg 24%
    15:00 +35°C° 0 mm 4 mps 693 mmHg 23%
    16:00 +34°C° 0 mm 4 mps 693 mmHg 27%
    17:00 +32°C° 0 mm 4 mps 693 mmHg 31%
    18:00 +30°C° 0 mm 3 mps 692 mmHg 35%
    19:00 +27°C° 0 mm 2 mps 692 mmHg 47%
    20:00 +24°C° 0 mm 2 mps 692 mmHg 60%
    21:00 +20°C° 0 mm 1 mps 692 mmHg 72%
    22:00 +20°C° 0 mm 1 mps 692 mmHg 74%
    23:00 +19°C° 0 mm 1 mps 692 mmHg 76%

    Tomorrow, 17 July, Wednesday

    Time Temperature Precipitation Wind Pressure Humidity
    00:00 +19°C° 0 mm 1 mps 692 mmHg 78%
    01:00 +18°C° 0 mm 1 mps 691 mmHg 78%
    02:00 +18°C° 0 mm 1 mps 691 mmHg 77%
    03:00 +18°C° 0 mm 1 mps 691 mmHg 77%
    04:00 +18°C° 0 mm 1 mps 691 mmHg 77%
    05:00 +18°C° 0 mm 1 mps 691 mmHg 76%
    06:00 +18°C° 0 mm 1 mps 692 mmHg 76%
    07:00 +21°C° 0 mm 1 mps 692 mmHg 65%
    08:00 +23°C° 0 mm 1 mps 693 mmHg 54%
    09:00 +26°C° 0 mm 2 mps 694 mmHg 42%
    10:00 +28°C° 0 mm 2 mps 694 mmHg 37%
    11:00 +29°C° 0 mm 3 mps 694 mmHg 32%
    12:00 +31°C° 0 mm 3 mps 694 mmHg 26%
    13:00 +31°C° 0 mm 3 mps 694 mmHg 25%
    14:00 +32°C° 0 mm 4 mps 693 mmHg 24%
    15:00 +32°C° 0 mm 4 mps 693 mmHg 23%
    16:00 +31°C° 0 mm 3 mps 693 mmHg 24%
    17:00 +30°C° 0 mm 3 mps 692 mmHg 26%
    18:00 +29°C° 0 mm 3 mps 692 mmHg 27%
    19:00 +26°C° 0 mm 2 mps 692 mmHg 36%
    20:00 +23°C° 0 mm 1 mps 691 mmHg 44%
    21:00 +20°C° 0 mm 1 mps 691 mmHg 52%
    22:00 +20°C° 0 mm 1 mps 691 mmHg 53%
    23:00 +17°C° 0 mm 0 mps 691 mmHg 53%

    Day after tomorrow, 18 July, Thursday

    Time Temperature Precipitation Wind Pressure Humidity
    00:00 +17°C° 0 mm 0 mps 692 mmHg 54%
    01:00 +17°C° 0 mm 0 mps 691 mmHg 54%
    02:00 +18°C° 0 mm 1 mps 691 mmHg 55%
    03:00 +18°C° 0 mm 1 mps 690 mmHg 55%
    04:00 +18°C° 0 mm 1 mps 691 mmHg 53%
    05:00 +18°C° 0 mm 1 mps 691 mmHg 51%
    06:00 +18°C° 0 mm 1 mps 691 mmHg 48%
    07:00 +21°C° 0 mm 1 mps 692 mmHg 43%
    08:00 +24°C° 0 mm 1 mps 693 mmHg 37%
    09:00 +27°C° 0 mm 2 mps 693 mmHg 31%
    10:00 +28°C° 0 mm 2 mps 694 mmHg 28%
    11:00 +30°C° 0 mm 2 mps 694 mmHg 25%
    12:00 +32°C° 0 mm 2 mps 694 mmHg 22%
    13:00 +34°C° 0 mm 3 mps 694 mmHg 21%
    14:00 +34°C° 0 mm 3 mps 693 mmHg 20%
    15:00 +35°C° 0 mm 3 mps 693 mmHg 19%
    16:00 +34°C° 0 mm 3 mps 692 mmHg 21%
    17:00 +33°C° 0 mm 3 mps 692 mmHg 22%
    18:00 +31°C° 0 mm 2 mps 692 mmHg 24%
    19:00 +28°C° 0 mm 2 mps 691 mmHg 33%
    20:00 +25°C° 0 mm 1 mps 691 mmHg 42%
    21:00 +19°C° 0 mm 0 mps 691 mmHg 52%
    22:00 +21°C° 0 mm 1 mps 691 mmHg 51%
    23:00 +21°C° 0 mm 1 mps 691 mmHg 50%

    19 July, Friday

    Time Temperature Precipitation Wind Pressure Humidity
    00:00 +20°C° 0 mm 1 mps 691 mmHg 49%
    01:00 +20°C° 0 mm 1 mps 691 mmHg 46%
    02:00 +20°C° 0 mm 1 mps 690 mmHg 44%
    03:00 +20°C° 0 mm 1 mps 690 mmHg 41%
    04:00 +20°C° 0 mm 1 mps 690 mmHg 39%
    05:00 +21°C° 0 mm 1 mps 690 mmHg 36%
    06:00 +21°C° 0 mm 1 mps 690 mmHg 34%
    07:00 +24°C° 0 mm 1 mps 691 mmHg 30%
    08:00 +27°C° 0 mm 2 mps 692 mmHg 26%
    09:00 +30°C° 0 mm 3 mps 692 mmHg 22%
    10:00 +31°C° 0 mm 3 mps 692 mmHg 21%
    11:00 +33°C° 0 mm 4 mps 692 mmHg 21%
    12:00 +34°C° 0 mm 5 mps 692 mmHg 20%
    13:00 +35°C° 0 mm 5 mps 692 mmHg 20%
    14:00 +35°C° 0 mm 4 mps 691 mmHg 20%
    15:00 +35°C° 0 mm 4 mps 691 mmHg 20%
    16:00 +35°C° 0 mm 3 mps 691 mmHg 22%
    17:00 +34°C° 0 mm 3 mps 690 mmHg 24%
    18:00 +32°C° 0 mm 2 mps 690 mmHg 25%
    19:00 +29°C° 0 mm 2 mps 690 mmHg 36%
    20:00 +25°C° 0 mm 2 mps 690 mmHg 46%
    21:00 +21°C° 0 mm 2 mps 690 mmHg 57%
    22:00 +21°C° 0 mm 2 mps 690 mmHg 54%
    23:00 +21°C° 0 mm 2 mps 690 mmHg 51%

    20 July, Saturday

    Time Temperature Precipitation Wind Pressure Humidity
    00:00 +21°C° 0 mm 2 mps 690 mmHg 49%
    01:00 +22°C° 0 mm 1 mps 690 mmHg 47%
    02:00 +21°C° 0 mm 1 mps 690 mmHg 46%
    03:00 +21°C° 0 mm 1 mps 690 mmHg 44%
    04:00 +21°C° 0 mm 1 mps 690 mmHg 45%
    05:00 +21°C° 0 mm 1 mps 690 mmHg 46%
    06:00 +21°C° 0 mm 1 mps 690 mmHg 47%
    07:00 +24°C° 0 mm 1 mps 691 mmHg 41%
    08:00 +27°C° 0 mm 1 mps 692 mmHg 36%
    09:00 +30°C° 0 mm 2 mps 692 mmHg 30%
    10:00 +31°C° 0 mm 2 mps 693 mmHg 29%
    11:00 +34°C° 0 mm 3 mps 693 mmHg 27%
    12:00 +35°C° 0 mm 3 mps 693 mmHg 26%
    13:00 +36°C° 0 mm 3 mps 693 mmHg 25%
    14:00 +37°C° 0 mm 3 mps 693 mmHg 24%
    15:00 +37°C° 0 mm 2 mps 692 mmHg 24%
    16:00 +36°C° 0 mm 3 mps 692 mmHg 27%
    17:00 +35°C° 0 mm 3 mps 692 mmHg 30%
    18:00 +33°C° 0 mm 3 mps 691 mmHg 34%
    19:00 +29°C° 0 mm 2 mps 691 mmHg 46%
    20:00 +25°C° 0 mm 2 mps 691 mmHg 59%
    21:00 +21°C° 0 mm 2 mps 691 mmHg 72%
    22:00 +22°C° 0 mm 1 mps 692 mmHg 69%
    23:00 +22°C° 0 mm 1 mps 692 mmHg 67%

    21 July, Sunday

    Time Temperature Precipitation Wind Pressure Humidity
    00:00 +22°C° 0 mm 1 mps 692 mmHg 65%
    01:00 +22°C° 0 mm 1 mps 692 mmHg 65%
    02:00 +21°C° 0 mm 1 mps 692 mmHg 66%
    03:00 +21°C° 0 mm 1 mps 692 mmHg 66%
    04:00 +21°C° 0 mm 1 mps 692 mmHg 66%
    05:00 +21°C° 0 mm 1 mps 692 mmHg 66%
    06:00 +21°C° 0 mm 1 mps 693 mmHg 66%
    07:00 +24°C° 0 mm 1 mps 693 mmHg 57%
    08:00 +27°C° 0 mm 1 mps 694 mmHg 49%
    09:00 +30°C° 0 mm 1 mps 695 mmHg 40%
    10:00 +31°C° 0 mm 2 mps 695 mmHg 37%
    11:00 +34°C° 0 mm 2 mps 695 mmHg 34%
    12:00 +35°C° 0 mm 3 mps 696 mmHg 31%
    13:00 +36°C° 0 mm 3 mps 695 mmHg 31%
    14:00 +36°C° 0 mm 3 mps 695 mmHg 31%
    15:00 +36°C° 0 mm 3 mps 695 mmHg 30%
    16:00 +35°C° 0 mm 3 mps 694 mmHg 33%
    17:00 +34°C° 0 mm 3 mps 694 mmHg 36%
    18:00 +33°C° 0 mm 3 mps 693 mmHg 39%
    19:00 +29°C° 0 mm 2 mps 693 mmHg 50%
    20:00 +26°C° 0 mm 2 mps 693 mmHg 60%
    21:00 +23°C° 0 mm 1 mps 693 mmHg 71%
    22:00 +23°C° 0 mm 1 mps 693 mmHg 74%
    23:00 +22°C° 0 mm 1 mps 693 mmHg 77%
    Show more